When you browse on this site, cookies collect data to enhance your experience and personalize the content and advertising you see.
Visit our Privacy Policy to learn more. By continuing to use the site, you agree to this use of cookies and data.
  • En España
  • Lista de países
  • Para 7 días
  • Temperatura del agua
  • El tiempo en el mapa
  • Informadores
  • user-avatar
    Iniciar sesión

    Tiempo cada hora Armawir

    Hoy, 6 Abril, Lunes

    Tiempo Temperatura Precipitaciones Viento Presión Humedad
    00:00 +15°C° 0 mm 1 mps 689 mmHg 50%
    01:00 +14°C° 0.1 mm 1 mps 689 mmHg 53%
    02:00 +14°C° 0.1 mm 1 mps 688 mmHg 55%
    03:00 +14°C° 0 mm 1 mps 687 mmHg 57%
    04:00 +13°C° 0 mm 1 mps 687 mmHg 58%
    05:00 +12°C° 0 mm 0 mps 687 mmHg 59%
    06:00 +12°C° 0 mm 0 mps 687 mmHg 60%
    07:00 +14°C° 0 mm 1 mps 687 mmHg 55%
    08:00 +15°C° 0 mm 1 mps 688 mmHg 50%
    09:00 +16°C° 0 mm 1 mps 688 mmHg 45%
    10:00 +16°C° 0.1 mm 2 mps 688 mmHg 48%
    11:00 +17°C° 0.1 mm 2 mps 688 mmHg 50%
    12:00 +17°C° 0.1 mm 3 mps 688 mmHg 53%
    13:00 +15°C° 1.2 mm 2 mps 687 mmHg 60%
    14:00 +14°C° 1.2 mm 2 mps 687 mmHg 67%
    15:00 +13°C° 1.2 mm 2 mps 687 mmHg 74%
    16:00 +13°C° 0.3 mm 2 mps 687 mmHg 74%
    17:00 +13°C° 0.3 mm 1 mps 687 mmHg 74%
    18:00 +13°C° 0.3 mm 1 mps 687 mmHg 75%
    19:00 +13°C° 0.1 mm 1 mps 687 mmHg 76%
    20:00 +13°C° 0.1 mm 1 mps 687 mmHg 77%
    21:00 +13°C° 0.1 mm 1 mps 687 mmHg 78%
    22:00 +12°C° 0.1 mm 1 mps 687 mmHg 78%
    23:00 +12°C° 0.1 mm 1 mps 687 mmHg 79%

    Mañana, 7 Abril, Martes

    Tiempo Temperatura Precipitaciones Viento Presión Humedad
    00:00 +12°C° 0.1 mm 1 mps 687 mmHg 79%
    01:00 +12°C° 0 mm 1 mps 687 mmHg 78%
    02:00 +12°C° 0 mm 1 mps 687 mmHg 77%
    03:00 +12°C° 0 mm 2 mps 687 mmHg 76%
    04:00 +12°C° 0.2 mm 2 mps 687 mmHg 75%
    05:00 +10°C° 0.2 mm 2 mps 687 mmHg 74%
    06:00 +10°C° 0.2 mm 2 mps 687 mmHg 73%
    07:00 +10°C° 0.2 mm 2 mps 687 mmHg 70%
    08:00 +12°C° 0.2 mm 2 mps 688 mmHg 67%
    09:00 +12°C° 0.2 mm 2 mps 688 mmHg 63%
    10:00 +12°C° 0 mm 2 mps 688 mmHg 61%
    11:00 +13°C° 0 mm 2 mps 688 mmHg 59%
    12:00 +13°C° 0 mm 2 mps 688 mmHg 57%
    13:00 +14°C° 0 mm 2 mps 688 mmHg 53%
    14:00 +15°C° 0 mm 2 mps 689 mmHg 49%
    15:00 +15°C° 0 mm 2 mps 689 mmHg 45%
    16:00 +14°C° 0 mm 3 mps 689 mmHg 46%
    17:00 +13°C° 0 mm 4 mps 689 mmHg 48%
    18:00 +12°C° 0 mm 4 mps 689 mmHg 49%
    19:00 +11°C° 0 mm 4 mps 689 mmHg 52%
    20:00 +9°C° 0 mm 3 mps 690 mmHg 55%
    21:00 +8°C° 0 mm 3 mps 690 mmHg 58%
    22:00 +8°C° 0 mm 3 mps 690 mmHg 57%
    23:00 +7°C° 0 mm 3 mps 691 mmHg 56%

    Pasado mañana, 8 Abril, Miércoles

    Tiempo Temperatura Precipitaciones Viento Presión Humedad
    00:00 +7°C° 0 mm 2 mps 691 mmHg 55%
    01:00 +6°C° 0 mm 2 mps 691 mmHg 56%
    02:00 +6°C° 0 mm 2 mps 691 mmHg 56%
    03:00 +6°C° 0 mm 1 mps 691 mmHg 57%
    04:00 +6°C° 0 mm 1 mps 691 mmHg 59%
    05:00 +6°C° 0 mm 1 mps 692 mmHg 60%
    06:00 +5°C° 0 mm 1 mps 692 mmHg 61%
    07:00 +6°C° 0 mm 1 mps 692 mmHg 56%
    08:00 +8°C° 0 mm 1 mps 692 mmHg 51%
    09:00 +9°C° 0 mm 1 mps 692 mmHg 46%
    10:00 +10°C° 0 mm 1 mps 692 mmHg 44%
    11:00 +10°C° 0 mm 2 mps 692 mmHg 42%
    12:00 +11°C° 0 mm 3 mps 692 mmHg 40%
    13:00 +12°C° 0 mm 3 mps 691 mmHg 39%
    14:00 +13°C° 0 mm 3 mps 691 mmHg 38%
    15:00 +13°C° 0 mm 3 mps 690 mmHg 37%
    16:00 +13°C° 0 mm 4 mps 690 mmHg 38%
    17:00 +12°C° 0 mm 4 mps 690 mmHg 40%
    18:00 +12°C° 0 mm 4 mps 690 mmHg 41%
    19:00 +11°C° 0 mm 3 mps 690 mmHg 44%
    20:00 +10°C° 0 mm 3 mps 690 mmHg 47%
    21:00 +9°C° 0 mm 3 mps 690 mmHg 50%
    22:00 +8°C° 0 mm 2 mps 690 mmHg 52%
    23:00 +7°C° 0 mm 2 mps 690 mmHg 54%

    9 Abril, Jueves

    Tiempo Temperatura Precipitaciones Viento Presión Humedad
    00:00 +8°C° 0 mm 1 mps 690 mmHg 56%
    01:00 +7°C° 0 mm 1 mps 689 mmHg 58%
    02:00 +7°C° 0 mm 1 mps 689 mmHg 60%
    03:00 +6°C° 0 mm 1 mps 688 mmHg 61%
    04:00 +6°C° 0 mm 1 mps 688 mmHg 62%
    05:00 +6°C° 0 mm 1 mps 688 mmHg 63%
    06:00 +6°C° 0 mm 1 mps 687 mmHg 64%
    07:00 +7°C° 0 mm 1 mps 687 mmHg 59%
    08:00 +9°C° 0 mm 1 mps 686 mmHg 55%
    09:00 +10°C° 0 mm 1 mps 686 mmHg 50%
    10:00 +10°C° 0 mm 2 mps 686 mmHg 47%
    11:00 +13°C° 0 mm 2 mps 685 mmHg 44%
    12:00 +14°C° 0 mm 2 mps 685 mmHg 42%
    13:00 +15°C° 0 mm 2 mps 685 mmHg 40%
    14:00 +16°C° 0 mm 2 mps 684 mmHg 38%
    15:00 +17°C° 0 mm 2 mps 684 mmHg 37%
    16:00 +16°C° 0 mm 2 mps 684 mmHg 39%
    17:00 +16°C° 0 mm 2 mps 684 mmHg 40%
    18:00 +16°C° 0 mm 2 mps 684 mmHg 42%
    19:00 +15°C° 0 mm 1 mps 684 mmHg 46%
    20:00 +13°C° 0 mm 1 mps 684 mmHg 50%
    21:00 +12°C° 0 mm 1 mps 684 mmHg 54%
    22:00 +12°C° 0 mm 1 mps 684 mmHg 56%
    23:00 +11°C° 0 mm 1 mps 684 mmHg 59%

    10 Abril, Viernes

    Tiempo Temperatura Precipitaciones Viento Presión Humedad
    00:00 +10°C° 0 mm 2 mps 684 mmHg 61%
    01:00 +10°C° 0 mm 1 mps 684 mmHg 63%
    02:00 +9°C° 0 mm 1 mps 683 mmHg 65%
    03:00 +9°C° 0 mm 1 mps 683 mmHg 67%
    04:00 +9°C° 0 mm 1 mps 683 mmHg 68%
    05:00 +8°C° 0 mm 1 mps 683 mmHg 68%
    06:00 +8°C° 0 mm 1 mps 683 mmHg 69%
    07:00 +10°C° 0 mm 1 mps 683 mmHg 64%
    08:00 +11°C° 0 mm 1 mps 683 mmHg 58%
    09:00 +13°C° 0 mm 2 mps 683 mmHg 53%
    10:00 +14°C° 0 mm 2 mps 683 mmHg 50%
    11:00 +14°C° 0 mm 3 mps 683 mmHg 46%
    12:00 +17°C° 0 mm 3 mps 683 mmHg 43%
    13:00 +17°C° 0 mm 3 mps 683 mmHg 42%
    14:00 +18°C° 0 mm 4 mps 682 mmHg 41%
    15:00 +18°C° 0 mm 4 mps 682 mmHg 40%
    16:00 +17°C° 0.1 mm 4 mps 682 mmHg 45%
    17:00 +15°C° 0.1 mm 4 mps 682 mmHg 51%
    18:00 +14°C° 0.1 mm 3 mps 682 mmHg 56%
    19:00 +14°C° 0 mm 3 mps 682 mmHg 58%
    20:00 +13°C° 0 mm 3 mps 682 mmHg 60%
    21:00 +13°C° 0 mm 3 mps 683 mmHg 62%
    22:00 +12°C° 0 mm 3 mps 683 mmHg 63%
    23:00 +13°C° 0 mm 2 mps 683 mmHg 64%

    11 Abril, Sábado

    Tiempo Temperatura Precipitaciones Viento Presión Humedad
    00:00 +13°C° 0 mm 2 mps 683 mmHg 65%
    01:00 +12°C° 0.8 mm 2 mps 682 mmHg 71%
    02:00 +12°C° 0.8 mm 1 mps 682 mmHg 77%
    03:00 +11°C° 0.8 mm 1 mps 682 mmHg 83%
    04:00 +11°C° 0.3 mm 1 mps 682 mmHg 83%
    05:00 +11°C° 0.3 mm 1 mps 682 mmHg 83%
    06:00 +10°C° 0.3 mm 1 mps 682 mmHg 83%
    07:00 +11°C° 0 mm 1 mps 682 mmHg 79%
    08:00 +12°C° 0 mm 2 mps 682 mmHg 75%
    09:00 +12°C° 0 mm 2 mps 683 mmHg 71%
    10:00 +13°C° 0.1 mm 2 mps 683 mmHg 65%
    11:00 +15°C° 0.1 mm 2 mps 683 mmHg 58%
    12:00 +16°C° 0.1 mm 2 mps 683 mmHg 51%
    13:00 +17°C° 0.3 mm 2 mps 683 mmHg 49%
    14:00 +17°C° 0.3 mm 2 mps 683 mmHg 46%
    15:00 +18°C° 0.3 mm 2 mps 683 mmHg 44%
    16:00 +17°C° 0.5 mm 3 mps 683 mmHg 48%
    17:00 +15°C° 0.5 mm 4 mps 683 mmHg 51%
    18:00 +14°C° 0.5 mm 4 mps 683 mmHg 55%
    19:00 +13°C° 0.3 mm 4 mps 683 mmHg 57%
    20:00 +12°C° 0.3 mm 3 mps 684 mmHg 60%
    21:00 +12°C° 0.3 mm 2 mps 684 mmHg 63%
    22:00 +12°C° 0 mm 2 mps 684 mmHg 63%
    23:00 +12°C° 0 mm 2 mps 684 mmHg 63%
    Mostrar más